Home > Weather > Almería > Past weeks

Flag for Spain Past Weather in Almería, Spain — Yesterday and Last 2 Weeks

Now
70 °F

Mild.


Feels Like: 70 °F
Forecast: 64 / 80 °F
Wind: 3 mph from Northwest

Location: Almeria / Aeropuerto

Current Time: Jun 25, 2016 at 7:15:23 AM

Latest Report: Jun 25, 2016 at 6:00 AM


Visibility: N/A

Pressure: 29.91 "Hg

Humidity: 59%

Dew Point: 55 °F

Location of AlmeríaLocation

Past Weather in Almería — Graph

°F

Almería Temperature Yesterday

Maximum temperature yesterday: 76 °F (at 6:00 PM)
Minimum temperature yesterday: 68 °F (at 6:00 AM)
Average temperature yesterday: 73 °F

High & Low Weather Summary for the Past Weeks

 TemperatureHumidityPressure
High90 °F (Jun 22, 3:00 PM)94% (Jun 13, 6:00 AM)30.28 "Hg (Jun 13, 6:00 AM)
Low60 °F (Jun 17, 4:00 AM)16% (Jun 22, 2:00 PM)29.59 "Hg (Jun 15, 5:00 PM)
Average72 °F65%29.98 "Hg
* Reported Jun 10 6:00 AM — Jun 25 6:00 AM, Almería, Weather by CustomWeather, © 2016

Note: Actual official high and low records may vary slightly from our data, if they occured in-between our weather recording intervals... More about our weather records

Advertising

Almería Weather History for the Previous 24 Hours

Scroll right to see more
 ConditionsComfort  
Time TempWeatherWind HumidityBarometerVisibility
6:00 AM
Sat, Jun 25
70 °FMild.3 mph59%29.91 "HgN/A
5:00 AM69 °FPassing clouds.2 mph62%29.94 "Hg7 mi
4:00 AM69 °FMild.3 mph82%29.96 "HgN/A
3:00 AM69 °FMild.No wind80%29.96 "HgN/A
2:00 AM70 °FMild.No wind86%29.97 "HgN/A
1:00 AM70 °FMild.2 mph87%29.99 "HgN/A
12:00 AM71 °FMild.2 mph88%30.01 "HgN/A
11:00 PM
Fri, Jun 24
72 °FMild.2 mph81%30.00 "HgN/A
10:00 PM73 °FMild.No wind79%29.99 "HgN/A
9:00 PM75 °FMild.No wind67%29.98 "HgN/A
8:00 PM75 °FPassing clouds.2 mph76%29.99 "Hg16 mi
6:00 PM76 °FMild.6 mph73%30.01 "HgN/A
5:00 PM76 °FPassing clouds.2 mph73%30.03 "Hg12 mi
4:00 PM76 °FMild.5 mph72%30.05 "HgN/A
3:00 PM76 °FMild.10 mph74%30.07 "HgN/A
2:00 PM76 °FPassing clouds.9 mph73%30.07 "Hg9 mi
1:00 PM75 °FMild.7 mph75%30.08 "HgN/A
12:00 PM76 °FMild.8 mph74%30.07 "HgN/A
11:00 AM73 °FSunny.5 mph78%30.09 "Hg9 mi
10:00 AM71 °FMild.No wind83%30.10 "HgN/A
9:00 AM70 °FMild.3 mph87%30.11 "HgN/A
8:00 AM69 °FFog.No wind89%30.11 "Hg4 mi
7:00 AM68 °FMild.2 mph86%30.11 "HgN/A
Weather by CustomWeather, © 2016

See weather overviewHow to use our weather pages